sat.trackr.live / text

‹ back to catalog

STARLINK-35276

NORAD 66009 · 2025-232E

PAYLOAD ACTIVE UNKNOWN

§ Identity

Operator
Country
US
Launch date
2025-10-16
Launch site
AFETR
Launch vehicle
Mass (kg)
RCS (m²)

Purposes: comms

External: N2YO · Heavens-Above · Gunter

§ Orbital elements

Epoch: 2026-09-20T05:32:20.700096Z

Period
93.85 min
Inclination
53.1581°
Eccentricity
0.0001840
Mean motion
15.34397484 rev/d
Perigee alt
461.5 km
Apogee alt
464.0 km
Semi-major
6,840.8 km
B*
2.9848e-4
RAAN
278.6637°
Arg perigee
77.9993°
Mean anomaly
282.1216°
Rev number
5,322

§ Raw data

STARLINK-352761 66009U 25232E   26263.23079514  .00009720  00000+0  29848-3 0  99962 66009  53.1581 278.6637 0001840  77.9993 282.1216 15.34397484 53224

JSON: /api/v1/satellites/66009 · /tle

For live sub-satellite position, see the globe view (requires WebGL).

§ Visibility from observer

Set your observer location to see the next 7 days of passes ≥ 10°. The values pass through the URL so the page stays shareable.

No JS? Fill the form by hand. The geolocation button needs JavaScript.